Wind_Speed
10 10 11 13 15 17 18 19 19 19 19 19 19 20 20 20 20 19 19 19 18 18 18 18 18 18 19 20 20 21 21 22 23 23 24 24 25 25 25 26 26 27 27
8 9 10 11 14 16 18 19 20 19 19 20 20 20 21 21 21 20 20 20 20 20 20 20 20 21 21 22 22 23 24 24 25 26 27 28 28 29 29 29 30 30 30
8 10 11 11 12 14 16 18 19 19 19 20 20 20 21 21 21 21 20 21 21 21 21 22 22 23 23 24 25 26 26 27 28 29 30 31 31 32 32 33 34 34 34
9 10 11 12 13 13 14 15 17 17 18 19 19 19 19 20 20 21 21 22 22 23 22 23 23 24 25 26 27 28 29 30 31 32 33 34 35 35 36 36 36 36 37
9 10 10 11 12 13 14 15 16 16 17 18 19 19 19 20 21 22 22 23 24 24 24 25 26 27 28 29 30 31 32 33 34 35 35 36 37 38 38 39 39 39 39
8 9 11 11 11 12 13 15 15 16 17 18 18 19 20 20 22 23 24 24 24 24 25 27 29 30 31 32 33 33 34 36 37 38 39 39 39 40 40 40 40 41 40
9 9 9 11 12 12 13 14 14 16 16 17 18 18 18 20 22 23 23 23 24 25 27 29 31 32 33 33 34 35 36 37 39 40 39 40 41 42 43 43 43 43 43
12 12 13 12 12 13 13 13 14 15 16 17 17 18 20 21 23 24 25 26 27 28 30 31 33 33 34 34 35 36 37 38 40 41 41 42 43 44 45 46 45 46 45
14 14 15 15 15 15 16 16 16 17 18 20 21 22 23 24 25 25 26 28 29 30 31 32 33 34 35 36 37 38 39 40 41 42 43 42 43 44 45 46 47 47 48
16 16 16 17 17 17 17 18 19 20 21 22 23 24 25 26 27 28 29 30 32 33 34 35 35 36 37 38 39 40 41 41 42 43 43 44 44 45 47 48 49 50 51
18 18 18 18 18 18 19 20 21 22 23 24 25 26 27 28 29 30 31 32 34 36 37 37 38 39 39 41 42 43 43 44 45 46 47 47 48 49 50 51 52 53 53
20 20 21 20 21 21 22 22 24 25 26 27 28 29 30 30 30 32 33 34 35 36 37 38 39 40 42 43 44 45 46 48 48 49 50 50 51 52 53 53 53 53 53
22 22 23 23 23 24 24 25 27 28 28 29 30 31 31 32 32 33 34 35 36 38 39 40 41 43 44 45 46 47 48 49 50 52 53 54 54 54 54 54 53 54 53
23 23 24 25 26 26 26 27 28 29 31 32 32 33 34 35 35 36 36 38 39 40 41 42 44 45 46 47 48 49 50 51 52 53 53 54 54 54 54 55 55 54 54
23 23 23 25 26 28 29 29 30 31 32 33 35 35 36 37 37 37 38 39 40 42 43 44 46 47 48 49 50 51 51 52 52 52 52 52 53 53 53 53 53 54 54
23 24 25 26 27 28 29 30 31 32 33 34 35 36 37 38 39 40 41 42 43 45 46 46 47 48 49 50 51 51 52 52 52 52 52 52 51 51 51 52 52 52 51
24 25 25 26 26 27 29 29 30 32 33 33 34 36 37 39 40 41 42 44 45 46 47 47 48 49 50 51 51 51 51 51 51 51 51 51 50 50 49 49 50 49 49
23 24 24 25 26 27 28 29 30 31 32 33 35 36 38 39 41 43 44 45 46 47 47 48 48 48 49 48 48 49 48 48 49 49 49 47 47 47 47 47 48 47 47
23 24 25 26 27 28 29 30 31 33 35 36 37 38 40 42 43 44 45 45 45 45 45 45 45 45 45 45 46 45 45 46 46 46 46 45 45 45 45 46 45 45 44
23 24 25 25 27 28 30 32 34 36 37 38 40 41 42 43 43 43 43 43 43 42 42 42 42 43 43 43 43 44 44 45 44 44 43 43 43 42 42 41 40 40 40
21 23 24 26 28 30 31 33 35 36 38 39 40 41 43 43 43 43 42 42 42 42 41 41 41 41 42 42 41 41 42 42 42 40 39 39 38 38 37 37 36 36 35
23 25 26 28 30 31 33 34 36 37 39 39 40 41 42 42 42 42 41 41 41 41 41 40 41 40 40 39 38 38 39 39 37 35 35 35 35 34 34 33 32 31 31
25 27 29 30 32 33 35 36 37 38 39 40 40 41 41 41 40 40 39 39 39 39 39 39 39 38 38 37 36 35 35 34 32 32 32 32 31 30 29 29 29 29 29
28 29 31 32 34 35 36 37 37 38 38 39 39 39 39 38 38 37 37 37 37 36 36 36 36 36 35 34 33 32 31 30 30 29 29 29 28 26 26 26 25 25 25
30 31 32 33 34 35 36 37 37 37 37 37 37 37 37 36 35 35 35 34 34 34 34 34 34 33 31 30 29 28 27 26 26 25 25 25 24 24 23 23 22 23 22
31 32 33 34 35 36 36 36 36 36 36 35 35 35 34 34 34 33 33 32 32 32 31 30 29 28 27 26 26 25 24 23 23 23 22 22 22 21 21 21 20 20 20
Wind_Direction
233 230 225 221 218 219 221 223 227 230 232 235 238 239 241 242 244 248 249 250 253 255 257 260 265 269 271 273 276 277 278 280 282 283 284 285 286 285 285 286 287 288 289
231 226 225 225 225 224 224 227 229 233 235 237 241 241 243 244 245 249 249 249 253 257 259 262 267 270 272 274 275 276 277 279 281 282 283 285 286 286 286 286 287 288 288
236 229 226 225 226 226 228 230 233 236 239 241 241 243 244 245 248 250 250 253 257 259 261 265 269 272 275 276 277 277 277 278 279 281 282 283 284 284 285 286 286 287 288
243 236 231 230 230 228 229 231 236 238 241 242 242 243 243 246 250 250 252 256 261 262 264 268 269 272 274 276 278 279 278 279 280 280 281 282 283 283 283 284 285 285 286
247 240 236 237 232 230 233 235 239 244 244 245 244 244 247 249 251 252 255 260 264 265 267 270 272 274 277 279 279 279 279 280 281 282 282 283 283 283 284 284 284 285 286
254 249 243 240 238 238 241 243 246 249 248 247 248 251 252 254 256 257 261 264 268 271 273 274 275 277 278 280 280 280 280 281 281 282 283 284 283 283 284 284 285 285 286
259 255 246 242 243 246 249 247 248 248 249 250 251 251 255 259 261 263 266 270 274 275 276 276 278 278 279 280 281 282 282 283 283 283 283 285 285 284 284 284 285 285 286
258 258 254 255 253 252 252 252 252 252 253 257 259 261 264 266 267 267 270 273 277 278 279 280 280 279 279 281 283 284 285 285 285 284 284 284 284 284 284 284 285 285 286
264 263 262 259 260 259 259 260 259 260 262 264 264 265 268 270 271 270 272 275 278 279 281 282 281 281 281 283 284 286 286 286 285 285 286 285 285 285 285 285 286 286 286
265 267 267 263 262 263 262 262 265 266 267 268 269 270 271 273 274 275 276 278 280 282 283 284 284 283 283 284 285 287 288 287 286 286 286 286 286 286 286 287 288 287 287
267 267 268 269 269 270 270 271 271 270 271 272 273 275 276 276 276 277 278 280 283 283 284 284 284 285 285 286 287 288 288 287 287 287 287 288 288 288 288 288 288 288 288
267 268 269 270 272 273 273 275 277 275 275 276 276 276 277 278 278 278 279 281 283 284 285 285 285 285 285 286 287 288 288 288 287 287 287 288 288 288 289 289 289 289 289
266 268 271 273 275 276 276 275 277 277 277 278 278 277 276 277 278 280 281 282 283 284 285 286 286 287 287 288 288 288 289 289 289 288 288 289 289 289 289 289 289 288 288
266 268 271 274 275 276 277 278 278 278 278 279 280 280 279 280 281 284 286 286 286 287 288 288 289 289 290 290 290 290 289 289 289 289 289 289 289 289 289 288 288 288 288
267 270 274 277 279 276 279 278 278 280 282 282 284 286 287 287 287 288 288 287 288 288 289 289 289 289 289 290 290 290 290 290 291 291 290 289 289 289 289 289 288 288 288
269 272 277 281 281 282 285 285 285 286 287 286 288 289 289 288 288 289 290 290 290 289 289 289 289 290 290 291 291 292 292 292 291 290 290 290 289 289 289 288 288 288 288
272 275 279 282 284 286 287 287 287 289 290 291 292 292 292 290 291 291 291 290 290 290 289 289 290 290 290 291 291 292 292 292 291 291 290 290 289 289 288 288 288 288 289
278 280 283 286 287 289 289 290 291 292 294 296 296 297 297 296 295 293 293 292 291 290 290 291 291 291 292 292 293 293 293 292 292 291 290 289 289 289 289 288 289 289 289
279 282 285 287 289 291 292 294 296 298 298 299 299 299 298 298 299 298 297 296 295 295 294 294 294 294 294 293 294 294 294 293 293 292 291 290 289 290 289 289 290 290 290
283 286 289 292 295 296 296 298 298 299 300 300 300 300 299 300 300 300 300 299 299 298 298 297 296 296 296 296 295 295 295 295 294 293 292 291 291 291 291 292 292 291 291
291 293 295 296 297 298 299 300 301 302 302 302 301 302 302 302 302 301 301 300 300 300 299 299 298 297 297 297 297 296 296 296 295 294 293 293 292 292 291 292 292 293 292
296 297 298 300 301 302 302 303 303 304 304 303 303 303 303 303 303 302 302 301 300 300 299 298 298 298 298 298 297 298 299 299 297 296 295 294 293 293 293 293 293 294 293
298 299 300 301 302 303 304 305 305 305 305 304 304 304 304 304 303 302 302 301 300 300 299 300 300 301 300 298 297 299 300 300 298 297 297 296 295 294 294 295 295 295 295
300 301 302 303 304 305 306 306 306 306 305 305 305 305 305 304 304 303 303 302 301 301 301 301 302 302 302 300 298 298 299 301 301 300 299 298 297 296 296 297 297 296 296
301 302 303 304 304 305 305 306 306 306 306 306 306 306 306 305 305 304 303 302 302 303 303 304 304 304 303 301 300 300 301 303 304 304 303 301 300 298 298 299 300 299 299
302 302 303 304 304 304 305 305 305 305 305 305 306 306 306 305 304 304 303 302 302 303 304 305 306 306 306 305 304 303 304 304 305 307 306 306 304 303 303 303 302 302 303
Height
5822 5824 5825 5827 5830 5832 5835 5838 5841 5843 5846 5848 5850 5852 5855 5857 5859 5860 5862 5863 5864 5865 5866 5867 5868 5868 5868 5868 5868 5868 5869 5869 5869 5869 5868 5867 5867 5866 5866 5865 5864 5863 5862
5821 5822 5823 5825 5827 5830 5832 5835 5837 5840 5842 5844 5846 5848 5850 5852 5854 5855 5857 5858 5859 5860 5861 5862 5863 5863 5863 5863 5863 5863 5863 5863 5863 5862 5861 5861 5860 5859 5858 5857 5856 5856 5855
5819 5820 5821 5823 5825 5827 5829 5832 5834 5836 5838 5840 5841 5844 5845 5847 5849 5850 5852 5853 5854 5855 5856 5857 5857 5857 5857 5857 5857 5856 5856 5856 5856 5855 5854 5853 5852 5851 5850 5849 5848 5847 5846
5817 5818 5819 5821 5822 5824 5827 5829 5831 5832 5834 5836 5837 5839 5841 5842 5844 5845 5847 5848 5849 5850 5850 5850 5851 5851 5851 5850 5850 5849 5849 5849 5848 5847 5846 5845 5844 5843 5841 5840 5839 5838 5837
5816 5816 5817 5819 5820 5822 5824 5826 5827 5829 5830 5832 5833 5835 5836 5838 5839 5840 5841 5842 5843 5844 5844 5844 5844 5844 5844 5843 5842 5842 5841 5840 5839 5838 5837 5836 5834 5833 5831 5830 5829 5828 5827
5814 5815 5816 5817 5818 5819 5821 5823 5824 5825 5827 5828 5829 5831 5832 5833 5834 5835 5836 5836 5837 5837 5837 5837 5837 5837 5836 5835 5834 5833 5832 5831 5829 5828 5827 5826 5824 5823 5821 5819 5818 5817 5816
5813 5813 5814 5815 5816 5817 5818 5819 5820 5821 5823 5824 5825 5826 5827 5828 5829 5829 5829 5830 5830 5830 5830 5829 5829 5828 5827 5826 5825 5823 5822 5821 5820 5818 5817 5815 5813 5811 5809 5808 5806 5805 5804
5810 5811 5811 5812 5813 5814 5815 5816 5816 5818 5819 5820 5820 5821 5822 5822 5822 5823 5823 5823 5823 5822 5822 5821 5820 5819 5818 5817 5816 5814 5813 5811 5809 5807 5806 5804 5802 5799 5797 5796 5794 5792 5791
5807 5808 5808 5809 5810 5810 5811 5812 5812 5813 5814 5814 5815 5815 5816 5816 5816 5816 5816 5816 5815 5815 5814 5812 5811 5810 5809 5807 5806 5804 5803 5800 5798 5796 5794 5792 5790 5787 5785 5782 5780 5778 5777
5803 5804 5804 5804 5805 5806 5806 5807 5808 5808 5808 5808 5809 5809 5809 5809 5808 5808 5808 5807 5807 5806 5805 5803 5802 5800 5799 5797 5795 5793 5791 5789 5786 5784 5782 5779 5777 5775 5772 5769 5767 5764 5762
5799 5799 5799 5800 5800 5801 5801 5802 5802 5802 5802 5802 5802 5802 5801 5801 5801 5800 5799 5798 5797 5796 5795 5793 5792 5790 5788 5786 5784 5782 5779 5777 5774 5772 5769 5766 5764 5761 5758 5755 5752 5749 5747
5794 5794 5794 5795 5795 5796 5796 5796 5796 5795 5795 5795 5794 5793 5793 5793 5792 5791 5790 5789 5787 5785 5784 5782 5780 5779 5777 5774 5772 5769 5766 5763 5761 5758 5755 5752 5749 5746 5743 5740 5737 5734 5730
5788 5788 5788 5789 5789 5790 5790 5790 5789 5788 5788 5787 5785 5785 5784 5783 5782 5781 5780 5778 5777 5775 5773 5770 5768 5766 5764 5761 5758 5755 5752 5749 5746 5743 5739 5736 5733 5730 5727 5724 5721 5718 5715
5782 5782 5782 5783 5782 5782 5782 5782 5781 5781 5780 5778 5776 5775 5774 5774 5773 5771 5769 5767 5766 5763 5761 5758 5756 5753 5750 5747 5744 5741 5738 5734 5731 5728 5724 5721 5717 5714 5711 5708 5705 5701 5698
5775 5776 5776 5776 5775 5775 5775 5774 5773 5773 5771 5770 5768 5766 5765 5764 5762 5760 5758 5756 5754 5752 5749 5746 5743 5740 5737 5734 5730 5726 5723 5719 5715 5712 5708 5705 5701 5698 5694 5691 5687 5684 5681
5770 5770 5770 5769 5769 5768 5768 5767 5765 5764 5762 5761 5759 5757 5755 5754 5751 5749 5746 5744 5741 5739 5736 5733 5729 5726 5723 5719 5716 5712 5707 5704 5700 5696 5692 5688 5685 5681 5678 5674 5670 5667 5664
5764 5763 5763 5762 5762 5761 5760 5759 5758 5756 5754 5752 5749 5747 5745 5743 5741 5738 5735 5732 5729 5725 5721 5718 5715 5711 5708 5704 5700 5696 5692 5688 5684 5680 5677 5673 5669 5666 5662 5658 5655 5652 5648
5757 5757 5756 5755 5754 5753 5752 5750 5749 5747 5745 5743 5741 5738 5735 5732 5729 5725 5722 5719 5715 5711 5707 5703 5700 5697 5693 5689 5685 5681 5677 5673 5669 5665 5661 5658 5654 5650 5647 5643 5640 5637 5634
5751 5750 5749 5748 5747 5745 5744 5742 5740 5738 5735 5733 5730 5728 5724 5720 5716 5713 5709 5705 5701 5697 5693 5689 5686 5682 5679 5675 5671 5667 5663 5659 5655 5651 5647 5643 5639 5636 5633 5629 5626 5622 5619
5744 5743 5742 5740 5739 5738 5736 5734 5731 5728 5725 5722 5719 5716 5712 5708 5704 5700 5696 5692 5688 5684 5680 5676 5673 5669 5665 5662 5658 5654 5650 5645 5641 5637 5632 5629 5626 5622 5619 5616 5612 5609 5606
5737 5736 5735 5733 5732 5729 5727 5724 5721 5718 5715 5711 5707 5703 5699 5695 5691 5687 5683 5679 5675 5671 5668 5664 5660 5656 5653 5649 5645 5641 5636 5632 5628 5623 5619 5616 5613 5610 5607 5604 5601 5598 5595
5731 5729 5728 5725 5723 5720 5717 5714 5711 5708 5704 5700 5696 5692 5688 5684 5679 5675 5671 5667 5664 5660 5656 5652 5648 5644 5640 5636 5633 5629 5624 5620 5615 5612 5608 5605 5602 5598 5596 5593 5590 5588 5585
5723 5721 5719 5717 5714 5711 5708 5704 5701 5697 5693 5689 5685 5681 5676 5672 5668 5664 5660 5656 5652 5648 5644 5640 5637 5633 5629 5625 5621 5618 5614 5609 5605 5601 5598 5595 5591 5589 5586 5584 5581 5579 5576
5715 5713 5710 5707 5704 5701 5697 5694 5690 5686 5682 5678 5674 5670 5665 5661 5657 5653 5649 5645 5641 5638 5634 5630 5626 5622 5618 5614 5611 5607 5604 5600 5596 5593 5589 5586 5583 5581 5578 5576 5573 5571 5569
5706 5703 5701 5698 5695 5691 5688 5684 5680 5676 5672 5668 5663 5659 5655 5651 5647 5643 5640 5636 5632 5628 5624 5620 5616 5612 5609 5605 5602 5599 5596 5592 5589 5585 5582 5579 5576 5574 5572 5569 5567 5565 5562
5697 5694 5691 5688 5685 5681 5678 5674 5670 5666 5662 5658 5654 5650 5646 5642 5638 5634 5631 5627 5623 5620 5616 5612 5608 5604 5601 5597 5594 5592 5589 5586 5583 5579 5576 5573 5571 5568 5566 5564 5561 5559 5557